{"data":{"norad_id":50480,"epoch":"2026-09-19T22:19:35.005728Z","epoch_age_seconds":75071,"freshness":"FRESH","line1":"1 50480U 21132M   26262.93026627  .00000031  00000+0  46010-4 0  9997","line2":"2 50480  87.9163 316.6245 0001830 100.9942 259.1396 13.18686394234099","mean_motion":13.18686394,"eccentricity":0.000183,"inclination_deg":87.9163,"raan_deg":316.6245,"arg_perigee_deg":100.9942,"mean_anomaly_deg":259.1396,"bstar":4.601e-5,"rev_number":23409,"period_min":109.19957971448,"perigee_km":1188.3566976477,"apogee_km":1191.1265412224,"semimajor_km":7567.8786194351,"source":"CELESTRAK","updated_at":"2026-09-20T09:00:44.701587Z"}}